Location: Newark
(46.0000°N, 8.8667°E)
Time: 14:53:24
(UTC+00:00)

N. Korean satellite - Visible Passes

Search period start: 27 September 2020 00:00
Search period end: 07 October 2020 00:00
Orbit: 455 x 503 km, 97.2° (Epoch: 26 September)

Date Brightness Start Highest point End Pass type
(mag) Time Alt. Az. Time Alt. Az. Time Alt. Az.
27 Sep 8.8 04:28:27 10° NNE 04:31:43 30° E 04:34:55 10° SSE visible
28 Sep 9.8 04:03:15 10° NE 04:05:30 16° E 04:07:44 10° SE visible
30 Sep 7.8 04:43:30 10° NNE 04:47:01 47° E 04:50:27 10° S visible
01 Oct 9.3 04:17:56 10° NE 04:20:52 23° E 04:23:43 10° SSE visible
02 Oct 10.1 03:53:16 10° ENE 03:54:35 12° E 03:55:54 10° ESE visible
04 Oct 8.5 04:32:50 10° NNE 04:36:08 34° E 04:39:22 10° SSE visible
05 Oct 9.7 04:07:29 10° NE 04:09:55 17° E 04:12:18 10° SE visible
06 Oct 10.8 17:27:21 10° WSW 17:28:12 11° W 17:29:03 10° WNW visible
